Погода в Большом Садбери

Канада     46°29′36″N   80°59′23″W
темп.,
°C
ветер,
м/с
пор.,
м/с
влажн.,
%
обл.,
%
осадки,
мм/ч
давл.,
гПа
погр.,
м
12 апреля, пн
пн1223:00+11в3795100 0.6 1003248
02:00+11всв3997100 1.3 1004330
05:00+10всв41084100 0.0 1004428
08:00+9всв51180100 0.1 1006557
11:00+9всв41175100 0.1 1007686
14:00+9в51183100 0.1 1008817
17:00+8в51290100 1.4 1010642
20:00+8вюв41191100 1.4 1011569
13 апреля, вт
вт1323:00+7вюв31194100 0.0 1013594
02:00+8вюв41292100 0.3 1013574
05:00+7вюв41193100 0.0 1014578
08:00+7юв41193100 0.1 1015644
11:00+7юв41096100 2.2 1015754
14:00+6ююв3896100 3.4 1016527
17:00+8ююв3490100 0.1 1015499
20:00+7ююв228836 0.1 101625
14 апреля, ср
ср1423:00+3юв11945 0.0 101614
02:00+3юв118655 0.0 101610
05:00+2в229119 0.0 101515
08:00+4в249157 0.0 1015121
11:00+9юв347198 0.1 1014916
14:00+11ююв3461100 1.0 10121546
17:00+9ююз3469100 0.5 1012983
20:00+6всв0191100 3.3 1011107
15 апреля, чт
чт1523:00+5зюз2496100 5.4 1010275
02:00+4сз1295100 7.3 1009150
05:00+6св2697100 0.4 1008388
08:00+7св41092100 1.1 1009603
11:00+10св51170100 0.2 10081659
14:00+12св51156100 0.4 10071912
17:00+11всв51259100 0.1 10071846
20:00+8в2986100 0.4 1009513
16 апреля, пт
пт1623:00+7св2791100 0.1 1010365
02:00+6ссв3890100 0.3 1010326
05:00+5с4987100 0.1 1011288
08:00+5с398455 0.1 1012301
11:00+11ссв475572 0.0 1012830
14:00+15св463983 0.0 10112161
17:00+15в244591 0.0 10111341
20:00+11ююз226676 0.3 101338